{"data":{"norad_id":68387,"intl_designator":"2026-063H","name":"STARLINK-37223","alt_names":[],"object_type":"PAYLOAD","status":"ACTIVE","operator":null,"country":"US","launch_date":"2026-03-26","launch_site_code":"AFWTR","launch_vehicle":null,"mission":null,"orbit_class":"UNKNOWN","rcs_meters":null,"size_class":null,"mass_kg":null,"dimensions":null,"purposes":["comms"],"wikipedia_slug":null,"has_3d_model":false,"image_url":null,"decayed_at":null,"tle_current":{"epoch":"2026-05-25T00:00:02.000160Z","epoch_age_seconds":75048,"freshness":"FRESH","line1":"1 68387U 26063H   26145.00002315 -.00044584  00000+0 -13859-2 0  9992","line2":"2 68387  97.2844 287.5511 0000706  90.0212 112.9973 15.33466437  5968","mean_motion":15.33466437,"eccentricity":7.06e-5,"inclination_deg":97.2844,"raan_deg":287.5511,"arg_perigee_deg":90.0212,"mean_anomaly_deg":112.9973,"bstar":-0.0013859,"rev_number":596,"period_min":93.904891900807,"perigee_km":464.99623447397,"apogee_km":465.96255310877,"semimajor_km":6843.6163937914,"source":"CELESTRAK","updated_at":"2026-05-25T13:38:21.929570Z"}}}